User: anonymous   Login
Location: Unspecified
(0.0000°N, 0.0000°E)
Time: 11:34:09
(UTC+00:00)
Language:

EXOCUBE - Orbit

View from above orbital plane
View from above orbital plane
View from above satellite
View from above satellite

Ground track
Ground track

The orbit data is extracted from the following two-line orbital elements,

1 40380U 15003E   17264.81663131 +.00001185 +00000-0 +58699-4 0  9999
2 40380 099.1269 104.0240 0145884 055.7668 305.7280 15.11771292145383
Epoch (UTC): 21 September 2017 19:35:56
Eccentricity: 0.0145884
inclination: 99.1269°
perigee height: 430 km
apogee height: 631 km
right ascension of ascending node: 104.0240°
argument of perigee: 55.7668°
revolutions per day: 15.11771292
mean anomaly at epoch: 305.7280°
orbit number at epoch: 14538

The dashed part of the orbit path shows where the satellite is in the earth's shadow,  

DLR